FW7144 Weather Reports


time (UTC)temp
C
wind
direction
speed
KPH
gust
KPH
rain 1hr
cm
rain 24hr
cm
rain mn
cm
humidity
%
barometer
mb
20260510204406 25 288 11.3 25.7 0.00 0.00 0.00 31 1021.0
20260510203830 25 333 6.4 25.7 0.00 0.00 0.00 32 1021.1
20260510203206 25 316 4.8 25.7 0.00 0.00 0.00 34 1021.0
20260510202606 24 296 3.2 22.5 0.00 0.00 0.00 35 1021.1
20260510202005 23 280 4.8 22.5 0.00 0.00 0.00 33 1021.2
20260510201406 23 318 6.4 24.1 0.00 0.00 0.00 37 1021.1
20260510200806 22 313 6.4 29.0 0.00 0.00 0.00 39 1021.0
20260510200205 22 281 3.2 25.7 0.00 0.00 0.00 39 1020.9
20260510195606 23 325 4.8 14.5 0.00 0.00 0.00 35 1020.9
20260510195006 25 306 3.2 11.3 0.00 0.00 0.00 22 1020.8
20260510194405 25 226 0.0 9.7 0.00 0.00 0.00 22 1020.9
20260510193805 25 33 0.0 11.3 0.00 0.00 0.00 24 1020.9
20260510193205 26 280 0.0 8.0 0.00 0.00 0.00 22 1020.8
20260510192605 26 38 0.0 9.7 0.00 0.00 0.00 17 1020.9
20260510192006 26 141 0.0 8.0 0.00 0.00 0.00 16 1021.1
20260510191406 26 181 0.0 9.7 0.00 0.00 0.00 18 1021.0
20260510190805 26 183 0.0 19.3 0.00 0.00 0.00 17 1021.0
20260510190205 25 226 0.0 11.3 0.00 0.00 0.00 23 1021.0
20260510185605 24 281 0.0 8.0 0.00 0.00 0.00 26 1021.0
20260510185005 24 279 0.0 12.9 0.00 0.00 0.00 24 1021.1
20260510184406 24 106 0.0 9.7 0.00 0.00 0.00 22 1021.2
20260510183805 24 250 0.0 22.5 0.00 0.00 0.00 23 1021.4
20260510183206 25 140 0.0 14.5 0.00 0.00 0.00 27 1021.5
20260510182606 25 97 0.0 8.0 0.00 0.00 0.00 28 1021.5
20260510182005 25 106 0.0 12.9 0.00 0.00 0.00 27 1021.5
20260510181405 25 34 3.2 11.3 0.00 0.00 0.00 30 1021.5
20260510180806 26 3 0.0 12.9 0.00 0.00 0.00 32 1021.5
20260510180206 26 324 3.2 6.4 0.00 0.00 0.00 30 1021.5
20260510175605 25 343 0.0 11.3 0.00 0.00 0.00 32 1021.6
20260510175006 24 280 0.0 8.0 0.00 0.00 0.00 31 1021.8
20260510174406 24 207 0.0 6.4 0.00 0.00 0.00 32 1021.8
20260510173806 24 23 0.0 12.9 0.00 0.00 0.00 34 1021.8
20260510173205 25 206 6.4 9.7 0.00 0.00 0.00 34 1021.8
20260510172606 25 139 3.2 16.1 0.00 0.00 0.00 38 1021.9
20260510172005 25 128 3.2 14.5 0.00 0.00 0.00 34 1022.0
20260510171405 24 283 0.0 11.3 0.00 0.00 0.00 35 1022.1
20260510170805 23 198 6.4 12.9 0.00 0.00 0.00 37 1022.2
20260510170205 24 269 4.8 16.1 0.00 0.00 0.00 38 1022.2
20260510165606 25 268 6.4 11.3 0.00 0.00 0.00 35 1022.2
20260510165006 24 8 0.0 12.9 0.00 0.00 0.00 39 1022.3
20260510164405 24 251 0.0 8.0 0.00 0.00 0.00 40 1022.3
20260510163806 23 260 0.0 8.0 0.00 0.00 0.00 36 1022.4
20260510163205 23 276 0.0 11.3 0.00 0.00 0.00 46 1022.5
20260510162606 23 261 0.0 9.7 0.00 0.00 0.00 44 1022.4
20260510162006 23 354 0.0 11.3 0.00 0.00 0.00 48 1022.5
20260510161406 22 277 0.0 14.5 0.00 0.00 0.00 53 1022.5
20260510160805 22 264 3.2 11.3 0.00 0.00 0.00 53 1022.5
20260510160205 22 93 3.2 12.9 0.00 0.00 0.00 53 1022.6
20260510155606 22 321 3.2 12.9 0.00 0.00 0.00 55 1022.6
20260510155006 22 333 4.8 12.9 0.00 0.00 0.00 54 1022.6
20260510154406 21 258 3.2 12.9 0.00 0.00 0.00 56 1022.6
20260510153806 21 354 0.0 6.4 0.00 0.00 0.00 58 1022.5
20260510153206 21 270 0.0 6.4 0.00 0.00 0.00 58 1022.5
20260510152605 21 234 0.0 9.7 0.00 0.00 0.00 59 1022.5
20260510152005 21 171 0.0 3.2 0.00 0.00 0.00 60 1022.5
20260510151405 21 49 0.0 8.0 0.00 0.00 0.00 58 1022.5
20260510150806 20 294 0.0 9.7 0.00 0.00 0.00 60 1022.6
20260510150205 20 293 0.0 9.7 0.00 0.00 0.00 61 1022.7
20260510145605 20 251 0.0 6.4 0.00 0.00 0.00 60 1022.7
20260510145006 20 99 0.0 6.4 0.00 0.00 0.00 55 1022.7
20260510144406 19 165 0.0 3.2 0.00 0.00 0.00 54 1022.7
20260510143806 18 116 0.0 3.2 0.00 0.00 0.00 55 1022.7
20260510143206 18 114 3.2 4.8 0.00 0.00 0.00 54 1022.8
20260510142605 18 19 0.0 4.8 0.00 0.00 0.00 55 1022.9
20260510142005 17 67 0.0 6.4 0.00 0.00 0.00 56 1022.8
20260510141405 17 136 0.0 3.2 0.00 0.00 0.00 56 1022.8
20260510140805 17 291 0.0 6.4 0.00 0.00 0.00 58 1022.8
20260510140206 17 84 0.0 3.2 0.00 0.00 0.00 58 1022.6
20260510135606 16 84 0.0 4.8 0.00 0.00 0.00 58 1022.7
20260510135006 16 66 0.0 4.8 0.00 0.00 0.00 58 1022.6
20260510134405 16 89 3.2 6.4 0.00 0.00 0.00 59 1022.6
20260510133805 15 80 0.0 6.4 0.00 0.00 0.00 61 1022.5
20260510133205 15 106 3.2 4.8 0.00 0.00 0.00 62 1022.6
20260510132630 14 76 0.0 4.8 0.00 0.00 0.00 63 1022.5
20260510132006 13 106 0.0 6.4 0.00 0.00 0.00 64 1022.6
20260510131431 13 66 3.2 4.8 0.00 0.00 0.00 65 1022.5
20260510130843 13 81 0.0 4.8 0.00 0.00 0.00 65 1022.5
20260510125605 12 113 3.2 9.7 0.00 0.00 0.00 67 1022.3
20260510125005 12 107 6.4 9.7 0.00 0.00 0.00 66 1022.3
20260510124406 12 87 3.2 4.8 0.00 0.00 0.00 65 1022.2
20260510123806 12 91 3.2 8.0 0.00 0.00 0.00 66 1022.2
20260510123207 11 81 1.6 4.8 0.00 0.00 0.00 68 1022.1
20260510122606 11 57 0.0 4.8 0.00 0.00 0.00 73 1022.0
20260510122006 11 97 0.0 9.7 0.00 0.00 0.00 73 1022.0
20260510121406 10 119 3.2 6.4 0.00 0.00 0.00 73 1021.9
20260510120806 10 90 1.6 4.8 0.00 0.00 0.00 73 1021.9
20260510120206 10 97 0.0 6.4 0.00 0.00 0.00 73 1021.9
20260510115605 9 75 0.0 8.0 0.00 0.00 0.00 72 1021.8
20260510115006 9 100 4.8 6.4 0.00 0.00 0.00 73 1021.8
20260510114405 9 85 3.2 9.7 0.00 0.00 0.00 72 1021.7
20260510113805 9 85 4.8 8.0 0.00 0.00 0.00 72 1021.7
20260510113230 9 102 4.8 11.3 0.00 0.00 0.00 71 1021.7
20260510112606 9 103 6.4 9.7 0.00 0.00 0.00 70 1021.7
20260510112007 9 106 6.4 9.7 0.00 0.00 0.00 71 1021.7
20260510111405 8 120 3.2 6.4 0.00 0.00 0.00 73 1021.8
20260510110806 8 113 3.2 4.8 0.00 0.00 0.00 74 1021.8
20260510110206 8 71 0.0 4.8 0.00 0.00 0.00 70 1021.7
20260510105606 8 61 3.2 6.4 0.00 0.00 0.00 68 1021.7
20260510105006 8 96 3.2 4.8 0.00 0.00 0.00 65 1021.6
20260510104418 9 62 3.2 6.4 0.00 0.00 0.00 64 1021.6
20260510103806 9 80 3.2 6.4 0.00 0.00 0.00 63 1021.5
20260510103205 9 91 3.2 6.4 0.00 0.00 0.00 67 1021.5
20260510102605 8 125 3.2 3.2 0.00 0.00 0.00 69 1021.5
20260510102006 7 111 0.0 3.2 0.00 0.00 0.00 68 1021.5
20260510101406 7 118 0.0 4.8 0.00 0.00 0.00 67 1021.4
20260510100806 7 71 0.0 4.8 0.00 0.00 0.00 66 1021.3
20260510100206 8 85 1.6 4.8 0.00 0.00 0.00 66 1021.3
20260510095605 8 92 3.2 0.0 0.00 0.00 0.00 67 1021.3
20260510095005 7 79 0.0 4.8 0.00 0.00 0.00 69 1021.3
20260510094406 8 131 1.6 6.4 0.00 0.00 0.00 69 1021.3
20260510093805 8 115 1.6 3.2 0.00 0.00 0.00 65 1021.3
20260510093206 8 103 0.0 4.8 0.00 0.00 0.00 65 1021.2
20260510092606 8 104 3.2 6.4 0.00 0.00 0.00 66 1021.2
20260510092005 8 111 4.8 9.7 0.00 0.00 0.00 64 1021.2
20260510091406 8 133 3.2 8.0 0.00 0.00 0.00 62 1021.2
20260510090806 8 97 3.2 4.8 0.00 0.00 0.00 63 1021.1
20260510090205 8 76 0.0 4.8 0.00 0.00 0.00 62 1021.2
20260510085606 8 37 0.0 4.8 0.00 0.00 0.00 63 1021.1
20260510085006 8 68 1.6 6.4 0.00 0.00 0.00 63 1021.1
20260510084405 8 99 4.8 9.7 0.00 0.00 0.00 63 1021.1
20260510083805 9 99 6.4 9.7 0.00 0.00 0.00 58 1021.1
20260510083206 10 103 4.8 9.7 0.00 0.00 0.00 57 1021.2
20260510082605 10 83 4.8 9.7 0.00 0.00 0.00 60 1021.2
20260510082005 8 95 6.4 4.8 0.00 0.00 0.00 64 1021.1
20260510081405 8 81 0.0 4.8 0.00 0.00 0.00 65 1021.1
20260510080806 9 107 3.2 6.4 0.00 0.00 0.00 62 1021.0
20260510080218 10 110 3.2 6.4 0.00 0.00 0.00 61 1021.1
20260510075605 10 134 0.0 6.4 0.00 0.00 0.00 62 1021.0
20260510075006 9 153 3.2 4.8 0.00 0.00 0.00 66 1021.1
20260510074405 8 121 0.0 3.2 0.00 0.00 0.00 70 1021.0
20260510073805 8 108 0.0 3.2 0.00 0.00 0.00 69 1021.0
20260510073205 9 117 3.2 8.0 0.00 0.00 0.00 68 1021.0
20260510072607 8 117 3.2 3.2 0.00 0.00 0.00 66 1021.0
20260510072006 8 107 0.0 3.2 0.00 0.00 0.00 65 1021.0
20260510071405 8 70 0.0 0.0 0.00 0.00 0.00 63 1020.9
20260510070806 8 60 0.0 0.0 0.00 0.00 0.00 62 1020.9
20260510070205 8 22 0.0 3.2 0.00 0.00 0.00 63 1020.9
20260510065605 9 44 0.0 4.8 0.00 0.00 0.00 62 1020.8
20260510065006 10 48 0.0 4.8 0.00 0.00 0.00 63 1020.8
20260510064405 8 75 0.0 6.4 0.00 0.00 0.00 62 1020.8
20260510063806 8 114 3.2 4.8 0.00 0.00 0.00 59 1020.8
20260510063205 10 272 0.0 8.0 0.00 0.00 0.00 64 1020.9
20260510062606 10 264 1.6 4.8 0.00 0.00 0.00 63 1020.9
20260510062006 10 304 0.0 4.8 0.00 0.00 0.00 60 1020.8
20260510061406 10 305 0.0 0.0 0.00 0.00 0.00 58 1020.8
20260510060806 11 75 0.0 0.0 0.00 0.00 0.00 56 1020.7
20260510060205 11 121 0.0 3.2 0.00 0.00 0.00 57 1020.7
20260510055606 11 123 0.0 4.8 0.00 0.00 0.00 57 1020.8
20260510055006 11 308 0.0 4.8 0.00 0.00 0.00 56 1020.8
20260510054406 11 92 3.2 6.4 0.00 0.00 0.00 51 1020.7
20260510053805 12 39 0.0 9.7 0.00 0.00 0.00 47 1020.7
20260510053218 12 75 4.8 9.7 0.00 0.00 0.00 44 1020.7
20260510052606 12 99 4.8 9.7 0.00 0.00 0.00 43 1020.7
20260510052006 12 51 3.2 6.4 0.00 0.00 0.00 44 1020.7
20260510051406 13 102 6.4 6.4 0.00 0.00 0.00 42 1020.8
20260510050806 13 84 0.0 3.2 0.00 0.00 0.00 43 1020.9
20260510050205 13 53 0.0 3.2 0.00 0.00 0.00 42 1020.9
20260510045631 13 89 0.0 3.2 0.00 0.00 0.00 41 1020.8
20260510045031 13 146 0.0 4.8 0.00 0.00 0.00 40 1020.8
20260510044419 13 53 0.0 3.2 0.00 0.00 0.00 45 1020.8
20260510043806 13 46 0.0 4.8 0.00 0.00 0.00 44 1020.8
20260510043205 15 57 1.6 0.0 0.00 0.00 0.00 48 1020.8
20260510042618 15 144 0.0 4.8 0.00 0.00 0.00 50 1020.9
20260510042006 14 96 0.0 3.2 0.00 0.00 0.00 49 1020.9
20260510041405 14 332 0.0 4.8 0.00 0.00 0.00 46 1020.9
20260510040806 15 289 0.0 4.8 0.00 0.00 0.00 46 1020.7
20260510040206 15 148 0.0 4.8 0.00 0.00 0.00 44 1020.6
20260510035606 15 112 0.0 3.2 0.00 0.00 0.00 44 1020.6
20260510035005 14 102 0.0 6.4 0.00 0.00 0.00 41 1020.6
20260510034430 14 84 1.6 6.4 0.00 0.00 0.00 40 1020.6
20260510033805 13 286 0.0 0.0 0.00 0.00 0.00 44 1020.6
20260510033206 14 286 0.0 0.0 0.00 0.00 0.00 44 1020.5
20260510032630 15 123 0.0 0.0 0.00 0.00 0.00 42 1020.5
20260510032018 16 123 0.0 6.4 0.00 0.00 0.00 41 1020.4
20260510031405 16 110 3.2 6.4 0.00 0.00 0.00 37 1020.4
20260510030806 16 119 4.8 11.3 0.00 0.00 0.00 37 1020.3
20260510030205 16 120 4.8 6.4 0.00 0.00 0.00 36 1020.2
20260510025606 17 94 3.2 6.4 0.00 0.00 0.00 31 1020.2
20260510025007 17 79 4.8 9.7 0.00 0.00 0.00 32 1020.2
20260510024406 17 73 6.4 6.4 0.00 0.00 0.00 34 1020.2
20260510023806 17 54 0.0 8.0 0.00 0.00 0.00 30 1020.1
20260510023207 17 68 6.4 8.0 0.00 0.00 0.00 28 1020.0
20260510022606 17 77 4.8 9.7 0.00 0.00 0.00 25 1020.0
20260510022006 17 60 6.4 9.7 0.00 0.00 0.00 24 1020.0
20260510021406 17 63 1.6 9.7 0.00 0.00 0.00 25 1019.9
20260510020805 17 67 4.8 8.0 0.00 0.00 0.00 25 1019.8
20260510020206 17 55 4.8 6.4 0.00 0.00 0.00 25 1019.6
20260510015606 18 70 0.0 9.7 0.00 0.00 0.00 26 1019.5
20260510015043 19 48 3.2 9.7 0.00 0.00 0.00 24 1019.4
20260510014405 20 68 4.8 12.9 0.00 0.00 0.00 23 1019.3
20260510013805 21 84 9.7 14.5 0.00 0.00 0.00 19 1019.2
20260510013205 21 78 8.0 12.9 0.00 0.00 0.00 19 1019.1
20260510012630 22 93 6.4 14.5 0.00 0.00 0.00 19 1019.0
20260510012006 22 92 9.7 16.1 0.00 0.00 0.00 19 1018.9
20260510011443 22 83 8.0 16.1 0.00 0.00 0.00 19 1018.8
20260510010806 23 88 11.3 20.9 0.00 0.00 0.00 17 1018.7
20260510010206 23 74 8.0 19.3 0.00 0.00 0.00 17 1018.7
20260510005606 24 86 9.7 20.9 0.00 0.00 0.00 17 1018.7
20260510005006 25 120 12.9 20.9 0.00 0.00 0.00 17 1018.6
20260510004406 25 93 8.0 22.5 0.00 0.00 0.00 17 1018.5
20260510003806 25 75 12.9 24.1 0.00 0.00 0.00 17 1018.5
20260510003206 25 85 14.5 24.1 0.00 0.00 0.00 18 1018.4
20260510002605 25 76 9.7 22.5 0.00 0.00 0.00 18 1018.4
20260510002005 25 75 11.3 25.7 0.00 0.00 0.00 19 1018.3
20260510001405 26 80 14.5 27.4 0.00 0.00 0.00 19 1018.3
20260510000830 26 83 12.9 27.4 0.00 0.00 0.00 18 1018.2
20260510000205 26 88 11.3 25.7 0.00 0.00 0.00 18 1018.1
20260509235606 26 75 4.8 24.1 0.00 0.00 0.00 19 1018.2
20260509235005 26 26 6.4 17.7 0.00 0.00 0.00 20 1018.1
20260509234405 27 75 9.7 19.3 0.00 0.00 0.00 20 1018.0
20260509233805 27 71 12.9 25.7 0.00 0.00 0.00 19 1018.0
20260509233231 27 100 6.4 20.9 0.00 0.00 0.00 20 1018.1
20260509232630 27 89 11.3 27.4 0.00 0.00 0.00 19 1018.0
20260509232006 26 76 9.7 25.7 0.00 0.00 0.00 21 1018.0
20260509231406 26 82 9.7 24.1 0.00 0.00 0.00 22 1017.9
20260509230805 27 68 4.8 14.5 0.00 0.00 0.00 21 1018.0
20260509230205 27 57 9.7 27.4 0.00 0.00 0.00 22 1018.0
20260509225606 26 79 16.1 29.0 0.00 0.00 0.00 22 1017.9
20260509225005 27 77 14.5 27.4 0.00 0.00 0.00 22 1017.9
20260509224406 27 92 14.5 32.2 0.00 0.00 0.00 23 1017.8
20260509223805 27 89 17.7 29.0 0.00 0.00 0.00 23 1017.8
20260509223206 27 96 12.9 30.6 0.00 0.00 0.00 23 1017.8
20260509222605 27 78 14.5 22.5 0.00 0.00 0.00 24 1017.8
20260509222043 28 62 8.0 25.7 0.00 0.00 0.00 24 1017.9
20260509221418 27 79 14.5 29.0 0.00 0.00 0.00 25 1017.9
20260509220831 26 116 14.5 24.1 0.00 0.00 0.00 25 1017.8
20260509220206 26 178 3.2 27.4 0.00 0.00 0.00 24 1017.9
20260509215606 27 123 9.7 20.9 0.00 0.00 0.00 24 1018.0
20260509215017 26 153 8.0 20.9 0.00 0.00 0.00 24 1018.1
20260509214405 26 132 11.3 25.7 0.00 0.00 0.00 23 1018.1
20260509213805 26 99 3.2 16.1 0.00 0.00 0.00 23 1018.2
20260509213218 26 115 11.3 22.5 0.00 0.00 0.00 22 1018.2
20260509212605 26 117 9.7 22.5 0.00 0.00 0.00 22 1018.2
20260509212006 26 150 6.4 17.7 0.00 0.00 0.00 22 1018.3
20260509211406 26 56 6.4 19.3 0.00 0.00 0.00 23 1018.4
20260509210805 26 104 11.3 25.7 0.00 0.00 0.00 24 1018.4
20260509210205 26 122 8.0 22.5 0.00 0.00 0.00 25 1018.4
20260509205606 26 105 0.0 24.1 0.00 0.00 0.00 27 1018.5
20260509205005 26 69 14.5 20.9 0.00 0.00 0.00 26 1018.5